Погода в Порт-Блэре

Индия     11°38′32″N   92°43′45″E
темп.,
°C
ветер,
м/с
пор.,
м/с
влажн.,
%
обл.,
%
осадки,
мм/ч
давл.,
гПа
погр.,
м
29 мая, вс
вс2923:30+27зюз6108499 0.3 1008774
02:30+27зюз61085100 0.5 1006742
05:30+27зюз7108488 1.4 1007808
08:30+29зюз79778 0.6 1008954
11:30+30зюз71073100 0.7 1007952
14:30+29зюз81074100 0.1 1006978
17:30+28зюз61082100 0.7 1007838
20:30+28зюз61081100 1.9 1008726
30 мая, пн
пн3023:30+27зюз61083100 2.5 1007664
02:30+27зюз6983100 2.3 1006580
05:30+27зюз588299 3.1 1007562
08:30+29зюз587882 0.9 1009815
11:30+29зюз6877100 0.9 1007879
14:30+29зюз797548 0.1 1005903
17:30+28зюз6982100 0.4 1007767
20:30+27зюз698489 0.4 1008674
31 мая, вт
вт3123:30+27зюз698585 0.8 1007621
02:30+27зюз6984100 0.3 1006642
05:30+27зюз598398 0.4 1007663
08:30+29зюз687520 0.1 1008943
11:30+30зюз687112 0.3 1007882
14:30+29зюз7874100 0.2 1005881
17:30+28зюз578280 0.9 1007690
20:30+27зюз588298 1.8 1009492
1 июня, ср
ср123:30+27зюз588394 1.8 1008599
02:30+27зюз6984100 0.0 1006619
05:30+27зюз5883100 0.1 1008639
08:30+29зюз677699 0.1 1009886
11:30+30зюз6773100 0.3 1007897
14:30+30зюз687268 0.4 1006872
17:30+28зюз588122 0.7 1007746
20:30+27зюз6982100 0.3 1009726
2 июня, чт
чт223:30+27зюз6983100 0.3 1008756
02:30+27юз6982100 0.2 1006710
05:30+27юз6982100 0.3 1007749
08:30+28юз61080100 0.0 1008935
11:30+29юз91277100 0.1 1006944
14:30+28юз81177100 0.3 10051059
17:30+27юз81281100 0.9 1006957
20:30+27юз81283100 1.0 1008868